Location: Iesi
(43.5167°N, 13.2333°E)
Time: 02:24:32
(UTC+00:00)

Cosmos 1535 Rocket - Pass Details

Date: 08 August 2020
Orbit: 949 x 1003 km, 83.0° (Epoch: 19 September)

Event Time Altitude Azimuth Distance (km) Brightness Sun altitude
Exits shadow 20:08:44 13° 181° (S) 2,476 6.2 -17.3°
Maximum altitude 20:14:18 80° 95° (E) 974 4.4 -18.0°
Drops below altitude 10° 20:20:26 10° 10° (N) 2,685 7.3 -18.8°
Sets 20:22:56 0° 9° (N) 3,632 8.0 -19.1°
